CZ-6A DEB, 54297

Orbit data source: Space-Track

CZ-6A DEB, 54297 is space debris in SSO originally from a launch on Fri, 11 Nov 2022 UTC launched from the Taiyaun Space Center, China (TSC). Debris objects in space refer to the collection of defunct objects orbiting the Earth. Examples of debris include non-operational satellites, rocket bodies, and fragments generated from explosions, collisions, or faulty payload assembly.

Loading next visibility...
Identifier
54297, 2022-151AQ
Orbit
SSO
Country
Flag of CNCN / PRC
Related business
Manufacturer
SAST
Mission
Spacecraft
Bus & Motor
Unknown
Mass
Unknown
Launch date (UTC)
2022-11-11 (4 years ago)
Launch vehicle
Unknown
Launch site
Taiyaun Space Center, China (TSC)
Object type
Payload
Rocket body
Debris
Shape & HBR
Unknown shape, 0.1 m
Radar Cross Section
Medium (>0.1 m² and <1 m²)

Expand to show TLE details & history
Last TLE update: 1 day ago

TLE from 1 day ago
0 CZ-6A DEB
1 54297U 22151AQ  26234.99952082  .00000745  00000-0  32357-3 0  9998
2 54297  98.7168 254.0583 0026223 159.1576 201.0680 14.26952354195917
Epoch: 2026-08-22T23:59Z
TLE epoch observation values (Epoch: 2026-08-22T23:59:18.598Z)
Latitude
Longitude
-77.07106°
Altitude
822.439 km
Speed
7.433 km/s
True Right ascension
16h 56m 13s
True Declination
0° 00' 00"
Sunlit
Object was in daylight at epoch
Visualization orbit readout
Latitude
Unknown
Longitude
Unknown
Altitude
Unknown
Speed
Unknown
Apparent Right ascension
Unknown
Apparent Declination
Unknown
Sunlit
N/A
Visualization observer readout
Local Sidereal Time
00:25:01
Azimuth
Unknown
Elevation
Unknown
Doppler factor
Unknown
Orbital elements
Apogee altitude
817.906 km
Perigee altitude
780.265 km
Semi-major axis
7,177.223 km
Eccentricity
0.00262
Inclination
98.7168°
RAAN
254.0583°
Arg. of periapsis
159.1576°
True anomaly
200.96031°
Mean anomaly
201.068°
Eccentric anomaly
201.01412°
Mean motion
3.56951 °/min
Orbital period
100.85 mins
BSTAR
0.00032357
Loading maneuver chart data...
Computing Atmospheric mass density...
Loading historical data...
Loading historical data...
Loading historical data...
Loading historical data...
Loading historical data...
Loading historical data...
Loading historical data...

Documentation

Showing up to 5 results
|